Location: Unspecified
(0.0000°N, 0.0000°E)
Time: 20:28:05
(UTC+00:00)

deb r/b Ablestar - Pass Details

Date: 15 March 2026
Orbit: 827 x 964 km, 67.7° (Epoch: 11 April)

Event Time Altitude Azimuth Distance (km) Brightness Sun altitude
Rises 19:36:35 0° 313° (NW) 3,481 ? -21.9°
Reaches altitude 10° 19:39:39 10° 297° (WNW) 2,570 ? -22.7°
Maximum altitude 19:43:59 21° 250° (WSW) 1,949 ? -23.8°
Drops below altitude 10° 19:48:25 10° 203° (SSW) 2,644 ? -24.9°
Sets 19:51:40 0° 188° (S) 3,611 ? -25.7°
